Wichita, KS

7:00 PM CDT on May 29, 2017 (GMT -0500)
Wichita Eisenhower National Airport

Weather History for KICT - October, 2011

Change the Weather History Date:

Monday, October 24, 2011

  Actual Average Record
Temperature  
Mean Temperature 62 °F 55 °F  
Max Temperature 84 °F 67 °F 89 °F (1939)
Min Temperature 40 °F 44 °F 29 °F (1995)
Degree Days  
Heating Degree Days 3 10  
Month to date heating degree days 108 163  
Since 1 July heating degree days 139 206  
Cooling Degree Days 0 0  
Month to date cooling degree days 48 35  
Year to date cooling degree days 2303 1684  
Growing Degree Days 12 (Base 50)    
Moisture  
Dew Point 47 °F    
Average Humidity 59    
Maximum Humidity 93    
Minimum Humidity 24    
Precipitation  
Precipitation 0.00 in 0.08 in 0.63 in (2000)
Month to date precipitation 1.82 2.28  
Year to date precipitation 19.04 29.51  
Snow  
Snow 0.00 in 0.10 in 0.00 in (2007)
Month to date snowfall 0.0 0.1  
Since 1 July snowfall 0.0 0.1  
Since 1 September snowfall 0.0 0.1  
Snow Depth 0.00 in    
Sea Level Pressure  
Sea Level Pressure 30.04 in    
Wind  
Wind Speed 12 mph (South)    
Max Wind Speed 28 mph    
Max Gust Speed 32 mph    
Visibility 9 miles    
Events      
T = Trace of Precipitation, MM = Missing Value Source: NWS Daily Summary

Daily Weather History Graph

Daily Weather History Graph

Search for Another Location

Airport or City:

Trip Planner

Search our weather history database for the weather conditions in past years. The results will help you decide how hot, cold, wet, or windy it might be!

Date:

Astronomy

Oct. 24, 2011 Rise Set
Actual Time 7:46 AM CDT 6:40 PM CDT
Civil Twilight 7:19 AM CDT 7:07 PM CDT
Nautical Twilight 6:49 AM CDT 7:38 PM CDT
Astronomical Twilight 6:18 AM CDT 8:08 PM CDT
Moon 5:08 AM CDT (10/24) 5:04 PM CDT (10/24)
Length of Visible Light 11h 47m
Length of Day
10h 54m
Waning Crescent, 7% of the Moon is Illuminated
Oct 24
Waning Crescent
Oct 26
New
Nov 2
First Quarter
Nov 10
Full
Nov 18
Last Quarter

Hourly Weather History & Observations

Time (CDT) Temp. Windchill Dew Point Humidity Pressure Visibility Wind Dir Wind Speed Gust Speed Precip Events Conditions
12:53 AM 52.0 °F - 46.0 °F 80% 30.08 in 10.0 mi NW 3.5 mph - N/A   Clear
1:53 AM 50.0 °F - 44.1 °F 80% 30.08 in 10.0 mi Calm Calm - N/A   Clear
2:53 AM 45.0 °F - 42.1 °F 90% 30.08 in 10.0 mi Calm Calm - N/A   Clear
3:53 AM 48.9 °F - 43.0 °F 80% 30.07 in 10.0 mi Calm Calm - N/A   Clear
4:53 AM 44.1 °F - 42.1 °F 93% 30.08 in 10.0 mi Calm Calm - N/A   Clear
5:53 AM 42.1 °F - 39.9 °F 92% 30.09 in 10.0 mi Calm Calm - N/A   Clear
6:53 AM 46.9 °F - 44.1 °F 90% 30.10 in 10.0 mi Calm Calm - N/A   Clear
7:53 AM 41.0 °F 37.1 °F 39.0 °F 93% 30.13 in 10.0 mi SSW 5.8 mph - N/A   Partly Cloudy
8:20 AM 44.6 °F 43.1 °F 41.0 °F 87% 30.13 in 3.0 mi SE 3.5 mph - N/A   Scattered Clouds
8:53 AM 51.1 °F - 48.9 °F 92% 30.13 in 3.0 mi Calm Calm - N/A   Scattered Clouds
9:53 AM 55.9 °F - 53.1 °F 90% 30.13 in 5.0 mi South 4.6 mph - N/A   Scattered Clouds
10:53 AM 64.9 °F - 55.0 °F 70% 30.12 in 10.0 mi SSE 10.4 mph - N/A   Scattered Clouds
11:53 AM 73.0 °F - 53.1 °F 49% 30.10 in 10.0 mi SSE 12.7 mph - N/A   Scattered Clouds
12:53 PM 80.1 °F - 48.9 °F 34% 30.06 in 10.0 mi South 16.1 mph - N/A   Scattered Clouds
1:53 PM 82.9 °F - 43.0 °F 24% 30.02 in 10.0 mi SSW 17.3 mph - N/A   Partly Cloudy
2:53 PM 82.9 °F - 46.9 °F 28% 29.99 in 10.0 mi South 21.9 mph 26.5 mph N/A   Partly Cloudy
3:53 PM 84.0 °F - 46.9 °F 27% 29.96 in 10.0 mi South 24.2 mph 32.2 mph N/A   Partly Cloudy
4:53 PM 82.0 °F - 50.0 °F 33% 29.96 in 10.0 mi South 21.9 mph 31.1 mph N/A   Partly Cloudy
5:53 PM 80.1 °F - 48.9 °F 34% 29.94 in 10.0 mi South 18.4 mph 31.1 mph N/A   Partly Cloudy
6:53 PM 75.2 °F - 51.8 °F 44% 29.96 in 10.0 mi South 19.6 mph - N/A   Partly Cloudy
7:53 PM 72.0 °F - 48.9 °F 44% 29.96 in 10.0 mi South 18.4 mph 26.5 mph N/A   Partly Cloudy
8:53 PM 70.0 °F - 50.0 °F 49% 29.96 in 10.0 mi South 18.4 mph - N/A   Partly Cloudy
9:53 PM 69.8 °F - 48.2 °F 46% 29.97 in 10.0 mi South 18.4 mph 26.5 mph N/A   Partly Cloudy
10:53 PM 68.0 °F - 51.1 °F 55% 29.94 in 10.0 mi South 20.7 mph 28.8 mph N/A   Partly Cloudy
11:53 PM 66.9 °F - 48.9 °F 52% 29.92 in 10.0 mi South 18.4 mph - N/A   Partly Cloudy